GW0416 Weather Reports


time (UTC)temp
F
wind
direction
speed
knots
gust
knots
rain 1hr
in
rain 24hr
in
rain mn
in
humidity
%
barometer
mb
20260902113035 55 280 7.0 11.3 0.00 0.00 0.00 69 1007.9
20260902111534 56 257 8.7 13.9 0.00 0.00 0.00 67 1008.0
20260902110042 56 238 8.7 13.9 0.00 0.00 0.00 67 1008.1
20260902104539 53 207 8.7 11.3 0.00 0.00 0.00 69 1008.0
20260902103038 54 205 6.1 8.7 0.00 0.00 0.00 65 1007.8
20260902101536 55 175 4.3 7.0 0.00 0.00 0.00 61 1008.0
20260902100035 56 156 3.5 6.1 0.00 0.00 0.00 61 1008.2
20260902094535 55 121 4.3 7.0 0.00 0.00 0.00 62 1008.2
20260902093040 58 130 0.0 4.3 0.00 0.00 0.00 56 1007.8
20260902091536 59 174 2.6 4.3 0.00 0.00 0.00 56 1008.2
20260902090037 57 127 1.7 3.5 0.00 0.00 0.00 59 1008.5
20260902084536 56 97 2.6 6.1 0.00 0.00 0.00 60 1008.6
20260902083039 58 92 4.3 6.1 0.00 0.00 0.00 57 1008.6
20260902081542 61 141 4.3 7.0 0.00 0.00 0.00 52 1008.7
20260902080047 61 139 3.5 7.8 0.00 0.00 0.00 52 1008.6
20260902074536 60 148 3.5 7.0 0.00 0.00 0.00 53 1008.6
20260902073037 61 128 4.3 6.1 0.00 0.00 0.00 51 1008.4
20260902071540 62 137 5.2 8.7 0.00 0.00 0.00 51 1008.5
20260902070034 61 153 3.5 7.0 0.00 0.00 0.00 51 1008.6
20260902064535 62 134 5.2 6.1 0.00 0.00 0.00 50 1008.7
20260902063037 63 135 3.5 7.0 0.00 0.00 0.00 48 1008.7
20260902061536 64 119 3.5 5.2 0.00 0.00 0.00 47 1008.9
20260902060038 64 143 2.6 4.3 0.00 0.00 0.00 47 1009.0
20260902054538 65 141 3.5 7.8 0.00 0.00 0.00 47 1009.0
20260902053038 64 155 4.3 7.8 0.00 0.00 0.00 47 1009.0
20260902051535 65 136 7.0 8.7 0.00 0.00 0.00 47 1009.0
20260902050036 64 134 6.1 9.6 0.00 0.00 0.00 47 1009.0
20260902044535 64 157 6.1 9.6 0.00 0.00 0.00 47 1009.1
20260902043042 66 146 5.2 9.6 0.00 0.00 0.00 46 1009.0
20260902041534 67 155 6.1 8.7 0.00 0.00 0.00 44 1009.1
20260902040038 68 135 7.0 9.6 0.00 0.00 0.00 43 1009.2
20260902034541 68 152 7.0 9.6 0.00 0.00 0.00 42 1009.3
20260902033038 68 146 7.0 8.7 0.00 0.00 0.00 40 1009.3
20260902031537 68 146 5.2 8.7 0.00 0.00 0.00 40 1009.4
20260902030045 69 157 4.3 7.8 0.00 0.00 0.00 38 1009.3
20260902024534 69 136 6.1 8.7 0.00 0.00 0.00 38 1009.2
20260902023042 70 147 6.1 8.7 0.00 0.00 0.00 38 1009.3
20260902021543 72 126 5.2 7.0 0.00 0.00 0.00 34 1009.1
20260902020037 74 131 6.1 7.8 0.00 0.00 0.00 32 1009.1
20260902014537 76 136 6.1 7.8 0.00 0.00 0.00 30 1009.1
20260902013034 78 132 6.1 8.7 0.00 0.00 0.00 28 1009.1
20260902011536 79 132 7.0 11.3 0.00 0.00 0.00 27 1009.0
20260902010034 81 161 7.0 11.3 0.00 0.00 0.00 24 1009.0
20260902004539 81 142 7.0 9.6 0.00 0.00 0.00 25 1009.1
20260902003037 81 128 6.1 10.4 0.00 0.00 0.00 25 1009.1
20260902001534 81 144 7.0 12.2 0.00 0.00 0.00 25 1009.3
20260902000037 81 129 9.6 13.9 0.00 0.00 0.00 25 1009.5
20260901234537 81 129 11.3 14.8 0.00 0.00 0.00 26 1009.4
20260901233036 81 153 9.6 13.9 0.00 0.00 0.00 26 1009.6
20260901231535 81 165 8.7 16.5 0.00 0.00 0.00 26 1009.8
20260901230039 81 165 9.6 19.1 0.00 0.00 0.00 26 1009.8
20260901224534 81 169 7.0 14.8 0.00 0.00 0.00 26 1010.0
20260901223038 82 172 8.7 16.5 0.00 0.00 0.00 26 1010.0
20260901221534 81 161 9.6 19.1 0.00 0.00 0.00 26 1010.3
20260901214533 80 179 8.7 15.6 0.00 0.00 0.00 26 1010.5
20260901213101 81 161 6.1 16.5 0.00 0.00 0.00 26 1010.7
20260901211537 80 173 7.8 17.4 0.00 0.00 0.00 27 1010.8
20260901210035 80 152 7.8 17.4 0.00 0.00 0.00 26 1011.0
20260901204539 80 155 11.3 17.4 0.00 0.00 0.00 26 1011.0
20260901203052 80 150 10.4 18.2 0.00 0.00 0.00 26 1011.2
20260901201535 80 142 10.4 19.1 0.00 0.00 0.00 27 1011.5
20260901200037 79 170 10.4 20.0 0.00 0.00 0.00 28 1011.6
20260901194542 78 150 13.0 20.0 0.00 0.00 0.00 29 1011.8
20260901193046 78 138 11.3 19.1 0.00 0.00 0.00 29 1011.9
20260901191535 78 138 14.8 24.3 0.00 0.00 0.00 29 1012.0
20260901190036 77 145 13.0 20.0 0.00 0.00 0.00 32 1012.1
20260901184534 77 142 13.9 22.6 0.00 0.00 0.00 31 1012.5
20260901183045 76 133 11.3 20.9 0.00 0.00 0.00 32 1012.6
20260901181537 75 135 13.0 19.1 0.00 0.00 0.00 35 1012.7
20260901180034 74 136 13.9 20.9 0.00 0.00 0.00 35 1012.9
20260901174534 73 153 11.3 17.4 0.00 0.00 0.00 38 1013.0
20260901173050 71 138 12.2 19.1 0.00 0.00 0.00 40 1013.2
20260901171540 69 146 11.3 20.9 0.00 0.00 0.00 42 1013.2
20260901170034 69 132 12.2 19.1 0.00 0.00 0.00 42 1013.4
20260901164536 69 155 13.9 20.0 0.00 0.00 0.00 43 1013.4
20260901163036 68 164 10.4 17.4 0.00 0.00 0.00 44 1013.5
20260901161537 67 145 9.6 15.6 0.00 0.00 0.00 45 1013.5
20260901160038 66 131 11.3 14.8 0.00 0.00 0.00 47 1013.6
20260901154538 65 147 7.0 12.2 0.00 0.00 0.00 48 1013.7
20260901153036 64 156 5.2 8.7 0.00 0.00 0.00 51 1013.9
20260901151534 64 171 4.3 7.8 0.00 0.00 0.00 53 1013.9
20260901150036 63 129 1.7 5.2 0.00 0.00 0.00 55 1014.1
20260901144534 61 115 4.3 7.0 0.00 0.00 0.00 57 1013.9
20260901143043 59 86 2.6 4.3 0.00 0.00 0.00 61 1013.8
20260901141542 57 65 2.6 4.3 0.00 0.00 0.00 68 1013.8
20260901140050 55 351 0.9 2.6 0.00 0.00 0.00 72 1013.6
20260901134537 53 355 0.9 2.6 0.00 0.00 0.00 76 1013.5
20260901133038 51 355 1.7 4.3 0.00 0.00 0.00 78 1013.6
20260901131538 50 355 2.6 4.3 0.00 0.00 0.00 78 1013.5
20260901130043 49 14 2.6 4.3 0.00 0.00 0.00 78 1013.5
20260901124537 49 21 3.5 5.2 0.00 0.00 0.00 77 1013.6
20260901123035 49 38 3.5 4.3 0.00 0.00 0.00 77 1013.6
20260901121533 49 44 2.6 4.3 0.00 0.00 0.00 76 1013.7
20260901120049 49 42 4.3 7.0 0.00 0.00 0.00 75 1013.6
20260901114535 49 24 2.6 4.3 0.00 0.00 0.00 73 1013.8